Tracking 19212 objects as of 16-Jul-2018
HD Live streaming from Space Station
objects crossing your sky now

FLOCK 2EP 18

Track FLOCK 2EP 18 now!
10-day predictions
FLOCK 2EP 18 is classified as:


NORAD ID: 41769
Int'l Code: 1998-067KM
Perigee: 345.7 km
Apogee: 353.2 km
Inclination: 51.6 °
Period: 91.4 minutes
Semi major axis: 6720 km
RCS: Unknown
Launch date: November 20, 1998
Source: United States (US)
Launch site: TYURATAM MISSILE AND SPACE COMPLEX (TTMTR)
aabbcc
Your satellite tracking list
Your tracking list is empty




NASA's NSSDC Master Catalog

Two Line Element Set (TLE):
1 41769U 98067KM  18196.57046559  .00053334  00000-0  34034-3 0  9998
2 41769  51.6314 193.7109 0005627  16.7512 343.3672 15.75818724104529
Source of the keplerian elements: AFSPC